User: anonymous   Login
Location: Baix
(44.7118°N, 4.7648°E)
Time: 16:25:09
(UTC+00:00)
Language:

Cosmos 1758 - Orbit

View from above orbital plane
View from above orbital plane
View from above satellite
View from above satellite

Ground track
Ground track

The orbit data is extracted from the following two-line orbital elements,

1 16791U 86046A   20292.92588845 +.00000844 +00000-0 +57190-4 0  9994
2 16791 082.4669 282.9364 0014942 255.2345 104.7227 15.05114570868836
Epoch (UTC): 18 October 2020 22:13:16
Eccentricity: 0.0014942
inclination: 82.4669°
perigee height: 541 km
apogee height: 561 km
right ascension of ascending node: 282.9364°
argument of perigee: 255.2345°
revolutions per day: 15.05114570
mean anomaly at epoch: 104.7227°
orbit number at epoch: 86883

The dashed part of the orbit path shows where the satellite is in the earth's shadow,  

DLR